EW6103 Weather Reports


time (UTC)temp
C
wind
direction
speed
KPH
gust
KPH
rain 1hr
cm
rain 24hr
cm
rain mn
cm
humidity
%
barometer
mb
20260902171005 21 45 0.0 3.2 0.00 0.00 0.00 63 1017.7
20260902170011 21 90 0.0 3.2 0.00 0.00 0.00 61 1017.6
20260902165008 22 45 1.6 3.2 0.00 0.00 0.00 58 1017.6
20260902164010 22 45 0.0 3.2 0.00 0.00 0.00 56 1017.6
20260902163008 22 45 1.6 4.8 0.00 0.00 0.00 56 1017.5
20260902162007 23 45 0.0 3.2 0.00 0.00 0.00 51 1017.3
20260902161007 23 225 0.0 3.2 0.00 0.00 0.00 49 1017.5
20260902160018 23 180 3.2 6.4 0.00 0.00 0.00 48 1017.5
20260902155007 23 0 3.2 6.4 0.00 0.00 0.00 52 1017.5
20260902154008 24 90 1.6 3.2 0.00 0.00 0.00 49 1017.6
20260902152006 24 270 6.4 8.0 0.00 0.00 0.00 49 1017.8
20260902151006 23 180 3.2 8.0 0.00 0.00 0.00 51 1017.9
20260902150010 24 270 8.0 11.3 0.00 0.00 0.00 51 1017.8
20260902144007 24 180 4.8 8.0 0.00 0.00 0.00 54 1017.9
20260902143011 23 180 6.4 11.3 0.00 0.00 0.00 56 1018.3
20260902142007 23 270 6.4 14.5 0.00 0.00 0.00 51 1018.1
20260902135007 24 270 6.4 14.5 0.00 0.00 0.00 51 1018.4
20260902134006 23 270 6.4 9.7 0.00 0.00 0.00 52 1018.4
20260902133010 23 270 4.8 9.7 0.00 0.00 0.00 54 1018.7
20260902132009 23 225 6.4 8.0 0.00 0.00 0.00 56 1018.6
20260902131034 23 270 8.0 16.1 0.00 0.00 0.00 55 1018.4
20260902125009 23 180 1.6 8.0 0.00 0.00 0.00 54 1018.7
20260902124010 23 180 4.8 6.4 0.00 0.00 0.00 55 1018.7
20260902120021 23 270 6.4 9.7 0.00 0.00 0.00 55 1019.1
20260902115008 23 180 3.2 4.8 0.00 0.00 0.00 58 1019.1
20260902114008 23 270 6.4 8.0 0.00 0.00 0.00 58 1019.2
20260902105009 23 180 3.2 11.3 0.00 0.00 0.00 61 1019.6
20260902104007 23 270 6.4 14.5 0.00 0.00 0.00 58 1019.8
20260902103011 23 270 6.4 12.9 0.00 0.00 0.00 62 1019.7
20260902101008 22 270 1.6 4.8 0.00 0.00 0.00 61 1019.8
20260902100014 22 270 3.2 6.4 0.00 0.00 0.00 58 1019.8
20260902095006 22 180 1.6 4.8 0.00 0.00 0.00 65 1020.0
20260902094008 22 270 3.2 6.4 0.00 0.00 0.00 63 1020.0
20260902093013 22 225 1.6 3.2 0.00 0.00 0.00 64 1020.1
20260902092008 21 180 1.6 4.8 0.00 0.00 0.00 64 1020.2
20260902091008 21 270 3.2 8.0 0.00 0.00 0.00 66 1020.2
20260902090016 20 180 3.2 6.4 0.00 0.00 0.00 66 1020.3
20260902085006 20 225 3.2 6.4 0.00 0.00 0.00 66 1020.4
20260902084008 19 180 1.6 4.8 0.00 0.00 0.00 69 1020.5
20260902083016 19 270 3.2 6.4 0.00 0.00 0.00 68 1020.6
20260902082009 18 225 1.6 6.4 0.00 0.00 0.00 68 1020.5
20260902081009 18 270 4.8 8.0 0.00 0.00 0.00 70 1020.6
20260902080012 18 270 4.8 8.0 0.00 0.00 0.00 72 1020.6
20260902074008 18 270 4.8 8.0 0.00 0.00 0.00 76 1020.6
20260902073012 17 270 6.4 8.0 0.00 0.00 0.00 76 1020.7
20260902072009 17 270 6.4 8.0 0.00 0.00 0.00 77 1020.7
20260902071008 16 270 1.6 4.8 0.00 0.00 0.00 75 1020.6
20260902070010 16 180 0.0 3.2 0.00 0.00 0.00 77 1020.6
20260902065008 15 180 0.0 3.2 0.00 0.00 0.00 82 1020.7
20260902064007 15 90 1.6 3.2 0.00 0.00 0.00 85 1020.7
20260902063010 13 90 1.6 3.2 0.00 0.00 0.00 88 1020.8
20260902062008 12 90 1.6 3.2 0.00 0.00 0.00 91 1020.8
20260902061006 12 45 0.0 3.2 0.00 0.00 0.00 94 1020.9
20260902055006 11 90 0.0 0.0 0.00 0.00 0.00 97 1020.9
20260902054007 10 90 0.0 1.6 0.00 0.00 0.00 98 1021.0
20260902053006 10 180 0.0 0.0 0.00 0.00 0.00 98 1020.9
20260902052007 10 180 0.0 0.0 0.00 0.00 0.00 98 1021.0
20260902051009 10 0 0.0 1.6 0.00 0.00 0.00 97 1020.7
20260902050013 10 45 0.0 0.0 0.00 0.00 0.00 97 1020.5
20260902045005 9 45 0.0 3.2 0.00 0.00 0.00 97 1020.7
20260902044005 9 135 0.0 1.6 0.00 0.00 0.00 97 1020.6
20260902043006 9 135 0.0 1.6 0.00 0.00 0.00 97 1020.7
20260902041008 9 135 1.6 3.2 0.00 0.00 0.00 97 1020.7
20260902040013 9 0 0.0 1.6 0.00 0.00 0.00 97 1020.6
20260902035009 9 0 0.0 3.2 0.00 0.00 0.00 97 1020.7
20260902034007 9 0 0.0 1.6 0.00 0.00 0.00 97 1020.5
20260902033010 9 0 0.0 1.6 0.00 0.00 0.00 97 1020.6
20260902032008 9 0 0.0 1.6 0.00 0.00 0.00 97 1020.7
20260902031007 9 0 0.0 3.2 0.00 0.00 0.00 97 1020.7
20260902030015 9 0 0.0 3.2 0.00 0.00 0.00 96 1020.6
20260902025008 9 0 0.0 1.6 0.00 0.00 0.00 97 1020.6
20260902024006 9 0 0.0 0.0 0.00 0.00 0.00 96 1020.4
20260902023006 9 0 0.0 1.6 0.00 0.00 0.00 96 1020.4
20260902022008 9 0 0.0 1.6 0.00 0.00 0.00 96 1020.4
20260902021008 10 0 0.0 1.6 0.00 0.00 0.00 96 1020.4
20260902020013 10 0 0.0 1.6 0.00 0.00 0.00 96 1020.3
20260902015008 10 0 0.0 1.6 0.00 0.00 0.00 96 1020.3
20260902014008 10 0 0.0 0.0 0.00 0.00 0.00 96 1020.2
20260902013010 10 0 0.0 0.0 0.00 0.00 0.00 96 1020.3
20260902012009 10 0 0.0 1.6 0.00 0.00 0.00 96 1020.2
20260902011006 10 0 1.6 3.2 0.00 0.00 0.00 96 1020.1
20260902010010 10 0 0.0 0.0 0.00 0.00 0.00 95 1020.2
20260902005008 10 0 0.0 0.0 0.00 0.00 0.00 95 1020.3
20260902004010 10 0 0.0 0.0 0.00 0.00 0.00 95 1020.2
20260902003008 11 0 0.0 3.2 0.00 0.00 0.00 95 1020.1
20260902002006 11 0 0.0 3.2 0.00 0.00 0.00 95 1020.2
20260902001006 11 0 0.0 3.2 0.00 0.00 0.00 95 1020.3
20260901235008 11 0 0.0 3.2 0.00 0.00 0.00 95 1020.2
20260901234006 11 0 0.0 1.6 0.00 0.00 0.00 95 1020.4
20260901233008 11 0 0.0 1.6 0.00 0.00 0.00 95 1020.4
20260901232005 11 0 0.0 0.0 0.00 0.00 0.00 95 1020.4
20260901231006 11 0 0.0 0.0 0.00 0.00 0.00 95 1020.3
20260901230014 11 0 0.0 0.0 0.00 0.00 0.00 95 1020.3
20260901225005 11 0 0.0 0.0 0.00 0.00 0.00 94 1020.3
20260901224005 11 0 0.0 1.6 0.00 0.00 0.00 94 1020.3
20260901223014 12 0 0.0 1.6 0.00 0.00 0.00 94 1020.3
20260901222006 12 0 0.0 1.6 0.00 0.00 0.00 94 1020.3
20260901221007 12 0 0.0 0.0 0.00 0.00 0.00 93 1020.4
20260901220017 12 0 0.0 0.0 0.00 0.00 0.00 93 1020.3
20260901215005 12 0 0.0 3.2 0.00 0.00 0.00 93 1020.3
20260901214007 12 0 0.0 0.0 0.00 0.00 0.00 94 1020.4
20260901213007 12 0 0.0 0.0 0.00 0.00 0.00 94 1020.2
20260901212006 12 0 0.0 1.6 0.00 0.00 0.00 93 1020.1
20260901211005 12 0 0.0 0.0 0.00 0.00 0.00 93 1020.2
20260901205006 12 45 0.0 1.6 0.00 0.00 0.00 92 1020.2
20260901204006 12 45 0.0 1.6 0.00 0.00 0.00 92 1020.0
20260901202010 12 45 0.0 0.0 0.00 0.00 0.00 91 1019.9
20260901201007 13 45 0.0 1.6 0.00 0.00 0.00 90 1020.0
20260901200011 13 45 0.0 0.0 0.00 0.00 0.00 89 1020.0
20260901195006 13 45 0.0 1.6 0.00 0.00 0.00 87 1019.8
20260901193007 13 90 0.0 1.6 0.00 0.00 0.00 87 1019.9
20260901192006 13 90 0.0 1.6 0.00 0.00 0.00 87 1019.9
20260901191007 14 90 0.0 0.0 0.00 0.00 0.00 87 1019.7
20260901190013 14 90 0.0 0.0 0.00 0.00 0.00 86 1019.7
20260901185010 15 90 0.0 1.6 0.00 0.00 0.00 84 1019.7
20260901184008 15 90 0.0 0.0 0.00 0.00 0.00 82 1019.4
20260901183007 15 90 0.0 1.6 0.00 0.00 0.00 82 1019.4
20260901182012 16 90 0.0 1.6 0.00 0.00 0.00 82 1019.3
20260901181037 16 45 0.0 0.0 0.00 0.00 0.00 80 1019.2
20260901180011 17 45 0.0 1.6 0.00 0.00 0.00 79 1019.0
20260901175007 17 45 1.6 3.2 0.00 0.00 0.00 76 1019.0
20260901173009 18 0 0.0 3.2 0.00 0.00 0.00 73 1018.7